Location: Artiguedieu
(43.5000°N, 0.5454°E)
Time: 19:20:54
(UTC+00:00)

Vanguard 1 - Pass Details

Date: 04 August 2021
Orbit: 652 x 3831 km, 34.3° (Epoch: 19 September)

Event Time Altitude Azimuth Distance (km) Brightness Sun altitude
Rises 11:51:56 0° 254° (WSW) 3,098 12.7 63.5°
Reaches altitude 10° 11:54:07 10° 245° (WSW) 2,318 12.3 63.5°
Maximum altitude 11:58:56 37° 178° (S) 1,501 12.4 63.6°
Drops below altitude 10° 12:06:25 10° 115° (ESE) 3,615 13.3 63.6°
Sets 12:10:43 0° 108° (ESE) 5,124 13.8 63.6°
